This is the latest recevied weather packets stored in our database for station/object N1UNH. If no packets are shown the sender has not sent any weather packets the latest 10 day(s).
| Time | Temp. | Humidity | Pressure | Rain* | Wind** | Luminosity | Snow |
|---|---|---|---|---|---|---|---|
| 1777638396 | 7.22° C | 71% | 1015 hPa | 0 mm | - | 33 W/m² | - |
| 1777638092 | 6.67° C | 71% | 1015.3 hPa | 0 mm | - | 34 W/m² | - |
| 1777637789 | 6.67° C | 72% | 1015.2 hPa | 0 mm | - | 37 W/m² | - |
| 1777637485 | 6.67° C | 79% | 1014.9 hPa | 0 mm | - | 34 W/m² | - |
| 1777637183 | 6.67° C | 74% | 1015.1 hPa | 0 mm | - | 39 W/m² | - |
| 1777636880 | 6.67° C | 75% | 1015 hPa | 0 mm | - | 31 W/m² | - |
| 1777636575 | 6.67° C | 74% | 1015 hPa | 0 mm | - | 31 W/m² | - |
| 1777636272 | 6.67° C | 76% | 1015.1 hPa | 0 mm | - | 32 W/m² | - |
| 1777635972 | 6.11° C | 78% | 1014.9 hPa | 0 mm | - | 34 W/m² | - |
| 1777635668 | 6.11° C | 81% | 1015.2 hPa | 0 mm | - | 32 W/m² | - |
| 1777635364 | 6.11° C | 80% | 1015 hPa | 0 mm | - | 34 W/m² | - |
| 1777635061 | 5.56° C | 82% | 1015 hPa | 0 mm | - | 29 W/m² | - |
| 1777634757 | 5.56° C | 83% | 1015.1 hPa | 0 mm | - | 27 W/m² | - |
| 1777634455 | 5° C | 87% | 1015 hPa | 0 mm | - | 26 W/m² | - |
| 1777634151 | 5° C | 86% | 1015.1 hPa | 0 mm | - | 26 W/m² | - |
| 1777633848 | 4.44° C | 87% | 1014.8 hPa | 0 mm | - | 25 W/m² | - |
| 1777633546 | 4.44° C | 89% | 1014.9 hPa | 0 mm | - | 24 W/m² | - |
| 1777633244 | 4.44° C | 90% | 1014.8 hPa | 0 mm | - | 24 W/m² | - |
| 1777632941 | 4.44° C | 89% | 1014.8 hPa | 0 mm | - | 23 W/m² | - |
| 1777632637 | 3.89° C | 92% | 1014.8 hPa | 0 mm | - | 22 W/m² | - |
| 1777632334 | 3.89° C | 92% | 1014.6 hPa | 0 mm | - | 21 W/m² | - |
| 1777632031 | 3.89° C | 92% | 1014.4 hPa | 0 mm | - | 20 W/m² | - |
| 1777631729 | 3.89° C | 92% | 1014.5 hPa | 0 mm | - | 19 W/m² | - |
| 1777631426 | 3.89° C | 91% | 1014.4 hPa | 0 mm | - | 18 W/m² | - |
| 1777631123 | 3.89° C | 91% | 1014.5 hPa | 0 mm | - | 17 W/m² | - |
* Rain latest hour (hover to see other rain measurements)
** Current wind speed in m/s (hover to see current wind gust speed)